AirNav   Everest Fuels
 
 1296 users online  

GA81 Big Dog - Cameron Field Airport
Ft Valley, Georgia, USA

GOING TO FT VALLEY?


FAA INFORMATION EFFECTIVE 07 NOVEMBER 2019

Location

FAA Identifier: GA81
Lat/Long: 32-32-52.0000N 083-49-37.0000W
32-32.866667N 083-49.616667W
32.5477778,-83.8269444
(estimated)
Elevation: 380 ft. / 116 m (estimated)
From city: 3 miles E of FT VALLEY, GA
Time zone: UTC -5 (UTC -4 during Daylight Saving Time)
Zip code: 31030

Airport Operations

Airport use: Private use. Permission required prior to landing
Activation date: 01/2003
Control tower: no
ARTCC: ATLANTA CENTER
FSS: MACON FLIGHT SERVICE STATION
Attendance: UNATNDD
Segmented circle: no

Airport Communications

WX AWOS-3 at PXE (4 nm SE): 123.825 (478-987-8768)
WX ASOS at MCN (13 nm NE): 120.775 (478-784-8825)

Nearby radio navigation aids

VOR radial/distance  VOR name  Freq  Var
MCNr226/12.5MACON VORTAC114.2001E
VNAr319/26.1VIENNA VORTAC116.5001E

 
NDB name  Hdg/Dist  Freq  Var  ID
MONTEZUMA044/14.242604WIZS .. --.. ...
LINDBERGH036/26.524204WLKG .-.. -.- --.
CONEY009/33.040006WOHY --- .... -.--

Airport Services

Runway Information

Runway 18/36

Dimensions: 3000 x 100 ft. / 914 x 30 m
Surface: turf
RUNWAY 18  RUNWAY 36
Traffic pattern: rightleft
Obstructions: 75 ft. pline, 1000 ft. from runway50 ft. pline, 3000 ft. from runway

Airport Ownership and Management from official FAA records

Ownership: Privately-owned
Owner: DAVID MURPHY
1651 BUCKEYE ROAD
FORT VALLEY, GA 31030
Phone 478-954-0225
Manager: DAVID MURPHY
1651 BUCKEYE ROAD
FORT VALLEY, GA 31030
Phone 478-954-0225

Airport Operational Statistics

Aircraft based on the field: 4
Single engine airplanes: 4
    

Additional Remarks

A113 WIND SOCK LOCATED ATOP OF MAIN HANGER. UNICOM- 122.9
LAND BETWEEN YELLOW CONES
LAND BETWEEN YELLOW CONES.
FOR CD CTC ATLANTA APCH AT 678-364-6132, WHEN APCH CLSD CTC ATLANTA ARTCC AT 770-210-7692.

Instrument Procedures

There are no published instrument procedures at GA81.

Some nearby airports with instrument procedures:

KPXE - Perry-Houston County Airport (4 nm SE)
KMCN - Middle Georgia Regional Airport (13 nm NE)
KWRB - Robins Air Force Base (13 nm NE)
53A - Dr. C P Savage Sr. Airport (17 nm SW)
KMAC - Macon Downtown Airport (21 nm NE)
 
Loc | Ops | Rwys | IFR | FBO | Links
Com | Nav | Svcs | Stats | Notes
Area around GA81 (Big Dog - Cameron Field Airport)
 
Road maps at: MapQuest Bing Google
 
Aerial photo
No photo
 
Sectional chart

 
Airport distance calculator
Flying to Big Dog - Cameron Field Airport? Find the distance to fly.

From to GA81

Sunrise and sunset
Times for 12-Nov-2019
 Local
(UTC-5)
 Zulu
(UTC)
Morning civil twilight06:3711:37
Sunrise07:0312:03
Sunset17:3622:36
Evening civil twilight18:0223:02

Current date and time
Zulu (UTC)  12-Nov-2019 21:55:07
Local (UTC-5)  12-Nov-2019 16:55:07
 
METAR
KPXE 
4nm SE 
122135Z AUTO 32014G22KT 10SM CLR 07/00 A3008 RMK AO2 T00731005
KMCN 
12nm NE 
122053Z 32013G20KT 10SM CLR 09/00 A3005 RMK AO2 SLP175 60000 T00940000 53002
KWRB 
13nm E 
122056Z 32017G23KT 10SM SCT030 SCT200 09/01 A3004 RMK AO2A SLP175 60000 T00910010 55000
TAF
KMCN 
12nm NE 
121950Z 1220/1318 33015G25KT P6SM SCT020 FM122200 33018G27KT P6SM SKC FM130200 35014G23KT P6SM SKC FM130400 35012KT P6SM SKC FM130900 01006KT P6SM SKC
KWRB 
13nm E 
121300Z 1213/1319 32020G25KT 9000 -SHRA BKN020 BKN060 QNH2990INS BECMG 1214/1215 32020G25KT 8000 -RA BKN015 BKN060 QNH2996INS BECMG 1223/1224 33012KT 9999 NSW SCT030 QNH3010INS BECMG 1314/1315 06010G15KT 9999 SKC QNH3028INS TX16/1213Z TNM01/1312Z
NOTAMs
Click for the latest NOTAMs
NOTAMs are issued by the DoD/FAA and will open in a separate window not controlled by AirNav.

 

 
 

Would you like to see your business listed on this page?

 If your business provides an interesting product or service to pilots, flight crews, aircraft, or users of the Big Dog - Cameron Field Airport, you should consider listing it here.  To start the listing process, click on the button below
 
Add a business
 

Other Pages about Big Dog - Cameron Field Airport

Update a link
 
Copyright © AirNav, LLC. All rights reserved. Privacy Policy  Contact